Change the Weather History Date:

Saturday, September 3, 2011

  Actual Average Record
Temperature  
Mean Temperature 63 °F 70 °F  
Max Temperature 71 °F 82 °F 104 °F (1947)
Min Temperature 54 °F 59 °F 37 °F (1974)
Degree Days  
Heating Degree Days 2 1  
Month to date heating degree days 2 3  
Since 1 July heating degree days 2 9  
Cooling Degree Days 0 6  
Month to date cooling degree days 29 19  
Year to date cooling degree days 1077 972  
Growing Degree Days 13 (Base 50)    
Moisture  
Dew Point 61 °F    
Average Humidity 77    
Maximum Humidity 100    
Minimum Humidity 53    
Precipitation  
Precipitation 0.40 in 0.10 in 4.20 in (1973)
Month to date precipitation 0.47 0.31  
Year to date precipitation 24.14 20.97  
Snow  
Snow 0.00 in 0.00 in - ()
Month to date snowfall 0.0 0.0  
Since 1 July snowfall 0.0 0.0  
Since 1 September snowfall 0.0 0.0  
Snow Depth 0.00 in    
Sea Level Pressure  
Sea Level Pressure 29.97 in    
Wind  
Wind Speed 11 mph (North)    
Max Wind Speed 29 mph    
Max Gust Speed 33 mph    
Visibility 6 miles    
Events Rain , Thunderstorm    
T = Trace of Precipitation, MM = Missing Value Source: NWS Daily Summary

Daily Weather History Graph

Daily Weather History Graph

Search for Another Location

Airport or City:

Trip Planner

Search our weather history database for the weather conditions in past years. The results will help you decide how hot, cold, wet, or windy it might be!

Date:

Astronomy

Sep. 03, 2011 Rise Set
Actual Time 7:02 AM CDT 8:02 PM CDT
Civil Twilight 6:34 AM CDT 8:30 PM CDT
Nautical Twilight 6:01 AM CDT 9:03 PM CDT
Astronomical Twilight 5:26 AM CDT 9:38 PM CDT
Moon 1:47 PM CDT (9/3) 11:26 PM CDT (9/3)
Length of Visible Light 13h 56m
Length of Day
13h 00m
Waxing Crescent, 39% of the Moon is Illuminated
Sep 3
Waxing Crescent
Sep 4
First Quarter
Sep 12
Full
Sep 20
Last Quarter
Sep 27
New

Hourly Weather History & Observations

Time (CDT) Temp. Dew Point Humidity Pressure Visibility Wind Dir Wind Speed Gust Speed Precip Events Conditions
12:53 AM 66.2 °F 64.4 °F 94% 29.88 in 6.0 mi Calm Calm - N/A   Clear
1:53 AM 66.0 °F 64.0 °F 93% 29.82 in 7.0 mi Calm Calm - N/A   Clear
2:53 AM 64.9 °F 63.0 °F 93% 29.81 in 8.0 mi Calm Calm - N/A   Clear
3:53 AM 68.0 °F 64.9 °F 90% 29.80 in 8.0 mi SSE 3.5 mph - N/A   Clear
4:53 AM 69.1 °F 66.0 °F 90% 29.79 in 8.0 mi SSE 3.5 mph - N/A   Clear
5:53 AM 69.1 °F 64.9 °F 87% 29.80 in 9.0 mi Calm Calm - N/A   Clear
6:53 AM 64.4 °F 64.4 °F 100% 29.86 in 5.0 mi Variable 3.5 mph - N/A   Mostly Cloudy
7:27 AM 64.4 °F 62.6 °F 94% 29.91 in 2.5 mi NNW 15.0 mph 23.0 mph 0.01 in   Mostly Cloudy
7:33 AM 64.4 °F 62.6 °F 94% 29.91 in 1.0 mi North 9.2 mph 19.6 mph 0.01 in   Mostly Cloudy
7:44 AM 64.4 °F 64.4 °F 100% 29.95 in 0.8 mi NNW 11.5 mph - 0.01 in Thunderstorm Overcast
7:53 AM 64.9 °F 64.0 °F 97% 29.93 in 0.8 mi NNW 8.1 mph - 0.01 in Thunderstorm Overcast
8:15 AM 64.4 °F 64.4 °F 100% 29.96 in 2.0 mi Calm Calm - 0.12 in Rain , Thunderstorm Light Rain
8:53 AM 66.0 °F 64.9 °F 96% 29.92 in 2.0 mi NNW 9.2 mph - 0.18 in Rain Rain
8:55 AM 66.2 °F 64.4 °F 94% 29.95 in 1.8 mi NNW 9.2 mph - 0.01 in Rain Rain
9:03 AM 66.2 °F 64.4 °F 94% 29.95 in 2.5 mi North 11.5 mph - 0.03 in Rain Rain
9:14 AM 66.2 °F 64.4 °F 94% 29.95 in 1.2 mi NNW 9.2 mph - 0.13 in Rain Heavy Rain
9:28 AM 66.2 °F 64.4 °F 94% 29.93 in 1.5 mi NNE 9.2 mph - 0.20 in Rain , Thunderstorm Heavy Rain
9:36 AM 66.2 °F 64.4 °F 94% 29.93 in 3.0 mi East 4.6 mph - N/A Rain , Thunderstorm Light Rain
9:43 AM 66.2 °F 64.4 °F 94% 29.92 in 4.0 mi ENE 4.6 mph - 0.20 in   Overcast
9:53 AM 66.9 °F 64.9 °F 93% 29.88 in 4.0 mi NNE 6.9 mph - 0.20 in   Mostly Cloudy
10:28 AM 68.0 °F 66.2 °F 94% 29.95 in 6.0 mi North 13.8 mph 17.3 mph N/A   Scattered Clouds
10:37 AM 68.0 °F 66.2 °F 94% 29.96 in 3.0 mi North 15.0 mph 20.7 mph N/A   Mostly Cloudy
10:53 AM 69.1 °F 66.0 °F 90% 29.93 in 5.0 mi North 12.7 mph - N/A   Overcast
11:46 AM 69.8 °F 66.2 °F 88% 29.98 in 6.0 mi North 13.8 mph - 0.01 in   Overcast
11:53 AM 69.8 °F 66.2 °F 88% 29.98 in 6.0 mi North 12.7 mph 20.7 mph N/A   Overcast
12:31 PM 71.6 °F 66.2 °F 83% 29.99 in 9.0 mi North 16.1 mph 21.9 mph N/A   Overcast
12:47 PM 68.0 °F 64.4 °F 88% 30.00 in 10.0 mi NNW 26.5 mph 32.2 mph 0.00 in Rain Light Rain
12:53 PM 64.9 °F 62.1 °F 90% 29.98 in 10.0 mi NNW 24.2 mph 33.4 mph 0.00 in Rain Light Rain
1:09 PM 64.4 °F 60.8 °F 88% 30.01 in 10.0 mi NNW 23.0 mph 29.9 mph N/A   Overcast
1:53 PM 61.0 °F 59.0 °F 93% 30.01 in 2.0 mi NNW 20.7 mph 29.9 mph 0.00 in Rain Light Rain
2:13 PM 62.6 °F 59.0 °F 88% 30.04 in 7.0 mi North 18.4 mph 28.8 mph 0.00 in Rain Light Rain
2:23 PM 62.6 °F 57.2 °F 82% 30.04 in 10.0 mi North 21.9 mph 28.8 mph 0.00 in   Overcast
2:53 PM 64.9 °F 55.9 °F 73% 30.03 in 10.0 mi North 20.7 mph 28.8 mph 0.00 in   Overcast
3:53 PM 68.0 °F 55.0 °F 63% 30.02 in 10.0 mi North 23.0 mph 29.9 mph N/A   Mostly Cloudy
4:53 PM 68.0 °F 52.0 °F 56% 30.02 in 10.0 mi North 17.3 mph 23.0 mph N/A   Overcast
5:53 PM 68.0 °F 50.0 °F 52% 30.04 in 10.0 mi NNE 13.8 mph 24.2 mph N/A   Overcast
6:53 PM 68.0 °F 51.1 °F 55% 30.05 in 10.0 mi North 12.7 mph - N/A   Overcast
7:53 PM 64.0 °F 53.1 °F 67% 30.07 in 10.0 mi North 6.9 mph - N/A   Scattered Clouds
8:53 PM 59.0 °F 53.1 °F 81% 30.11 in 10.0 mi North 6.9 mph - N/A   Clear
9:53 PM 57.0 °F 52.0 °F 83% 30.14 in 10.0 mi North 4.6 mph - N/A   Clear
10:53 PM 55.9 °F 51.1 °F 84% 30.16 in 10.0 mi North - - N/A   Clear
11:53 PM 55.9 °F 50.0 °F 80% 30.18 in 10.0 mi North 8.1 mph - N/A   Clear